Theta_e
295 297 295 293 294 294 293 291 294 294 296 298 302 306 310 312 314 315 317 317 318 319 320 320 321 323 322
294 293 292 293 294 293 293 295 295 293 296 300 303 307 308 310 312 313 315 315 316 317 318 316 317 320 321
291 291 292 292 292 292 292 292 294 296 299 299 302 302 305 307 310 311 311 311 313 314 316 317 316 317 317
290 290 290 290 290 290 291 291 293 296 298 299 297 299 303 304 307 308 309 310 312 314 315 316 316 316 314
289 290 290 289 290 290 291 292 294 295 296 297 298 299 301 302 305 309 310 311 309 310 312 314 314 315 315
288 288 288 289 290 291 291 292 294 293 295 294 294 297 298 299 300 304 305 305 307 308 310 310 313 313 313
287 288 287 287 289 290 291 290 292 293 293 293 296 297 299 301 302 303 304 305 308 309 309 310 312 313 313
285 286 287 287 288 289 289 290 290 291 291 292 293 294 297 301 302 301 302 305 308 308 309 310 312 312 312
286 286 286 287 288 289 289 290 289 290 290 290 294 296 296 298 300 300 302 304 307 308 310 310 312 313 313
284 283 285 285 287 287 288 288 289 289 289 290 290 290 293 296 298 299 303 305 306 308 308 310 310 310 306
282 283 284 284 285 286 286 287 288 287 288 288 288 288 289 291 293 298 303 304 305 304 303 304 307 306 303
282 283 283 283 284 285 286 286 286 286 287 287 286 287 288 290 291 297 299 301 300 300 299 300 300 300 301
282 282 282 282 283 284 285 286 286 286 286 286 286 287 287 289 291 294 296 297 298 298 296 296 297 297 296
281 281 281 282 282 284 285 285 286 286 286 286 286 286 287 288 289 292 293 294 295 295 295 295 294 294 294
280 281 281 282 283 284 285 285 286 285 285 285 285 284 286 287 288 290 291 293 294 294 294 294 293 292 292
280 281 281 282 283 284 285 285 285 285 285 285 286 286 285 285 287 290 292 292 292 293 293 293 292 293 293
280 281 282 283 284 285 285 285 285 284 285 285 286 283 287 284 287 289 290 291 292 291 292 292 291 291 291
Wind_Speed
39 41 45 48 43 40 44 44 42 40 41 40 40 41 39 39 38 36 35 37 39 35 46 42 47 51 50
41 45 43 40 40 45 44 36 40 40 39 34 37 37 40 37 30 29 28 31 31 34 34 51 60 47 58
41 42 41 39 42 42 41 44 40 39 34 32 29 36 38 39 34 30 32 32 31 30 34 36 43 49 62
36 40 40 42 42 43 44 41 40 38 35 33 44 37 29 32 36 33 34 30 29 29 27 35 36 40 47
40 39 39 43 43 44 42 40 40 39 36 37 36 35 35 35 29 27 28 30 31 31 27 31 37 41 45
42 39 43 43 45 44 44 41 32 40 33 43 44 38 39 37 35 37 36 34 32 31 33 32 35 33 39
42 38 43 45 43 45 32 40 40 41 38 42 37 38 37 32 28 28 29 31 29 29 30 33 34 34 36
40 41 41 44 41 41 41 42 42 39 31 35 39 39 36 30 32 36 37 31 26 27 28 31 33 34 34
38 37 38 38 33 34 37 34 40 36 29 33 24 22 25 25 25 26 26 25 26 24 26 27 26 26 30
46 43 32 32 29 27 31 34 37 38 23 23 32 24 12 14 10 18 17 12 6 16 18 22 34 38 46
36 35 34 36 35 27 29 31 38 39 31 26 24 25 22 24 21 12 13 12 21 24 30 38 37 37 42
34 36 38 41 35 32 28 31 35 31 30 26 28 26 23 23 19 13 16 27 30 32 29 26 20 19 20
37 38 40 40 36 33 30 34 28 26 19 21 24 24 20 21 20 16 18 21 24 27 25 21 23 24 33
37 40 41 38 36 33 31 30 25 19 14 17 16 14 14 16 19 17 21 16 23 24 29 27 26 28 33
39 42 41 39 37 32 31 22 17 14 10 6 5 6 2 8 12 17 22 23 26 29 30 29 28 24 24
40 40 39 38 36 30 20 14 10 6 5 3 5 10 16 16 16 21 25 29 29 27 26 27 27 26 24
41 39 36 35 30 23 16 9 6 5 7 10 6 8 12 12 15 16 22 26 26 25 22 19 22 22 22
Wind_Direction
294 296 301 305 304 301 305 305 299 299 297 293 288 280 279 279 279 275 273 266 260 263 251 248 247 244 243
298 303 304 304 303 304 308 300 296 300 303 290 280 281 275 274 271 273 271 273 268 261 255 254 263 248 244
299 303 304 304 304 304 302 301 297 301 300 298 291 279 274 269 272 269 276 282 271 266 257 248 250 257 245
302 302 303 304 301 299 299 297 298 300 298 291 299 295 291 275 269 268 265 275 274 265 261 251 248 243 249
302 303 304 305 301 302 298 298 294 299 303 297 301 299 287 287 280 264 259 254 268 270 267 256 257 252 248
308 303 302 303 301 304 295 292 300 302 293 294 298 294 285 287 278 273 272 270 266 262 256 258 254 260 258
302 303 304 301 303 308 301 303 297 293 299 299 297 292 293 286 288 284 277 274 265 257 259 258 247 249 256
303 300 298 299 298 297 300 298 299 297 302 288 294 294 280 280 276 284 282 276 264 261 258 252 249 247 247
308 301 299 298 298 298 299 301 301 298 302 297 302 317 308 291 287 285 288 275 261 257 248 241 243 244 188
308 310 313 313 308 303 302 303 299 300 301 284 295 304 301 292 297 317 296 306 268 220 232 224 202 181 161
314 317 320 322 314 310 303 305 300 296 298 290 283 282 280 278 289 281 177 180 174 169 165 172 182 180 163
320 317 316 318 317 318 315 312 306 299 297 287 284 287 280 270 272 237 178 162 162 157 159 160 163 173 185
316 316 318 322 324 322 321 314 311 309 295 288 291 291 273 254 247 227 180 168 167 157 151 152 159 161 158
318 319 322 323 322 328 315 320 317 313 302 298 306 294 262 243 241 224 191 160 167 164 157 154 152 154 156
323 322 322 324 326 331 321 321 314 307 307 320 31 55 302 223 197 195 173 159 161 160 157 148 150 153 165
325 323 323 326 329 328 332 330 326 330 343 359 46 72 89 98 132 140 149 150 149 151 149 151 157 163 165
328 329 339 340 333 341 345 341 4 46 44 45 46 37 83 89 104 126 139 140 149 153 164 170 157 160 167